When you browse on this site, cookies collect data to enhance your experience and personalize the content and advertising you see.
Visit our Privacy Policy to learn more. By continuing to use the site, you agree to this use of cookies and data.
  • In Czech Republic
  • List of Countries
  • For 7 days
  • Water Temperature
  • Weather Map
  • Weather Widgets
  • user-avatar
    Login

    Hourly Weather Staryy Dedin

    Today, 19 August, Monday

    Time Temperature Precipitation Wind Pressure Humidity
    00:00 +15°C° 0 mm 2 mps 746 mmHg 94%
    01:00 +15°C° 0 mm 2 mps 746 mmHg 93%
    02:00 +14°C° 0 mm 1 mps 747 mmHg 92%
    03:00 +14°C° 0 mm 1 mps 747 mmHg 92%
    04:00 +13°C° 0 mm 1 mps 747 mmHg 91%
    05:00 +13°C° 0 mm 2 mps 747 mmHg 91%
    06:00 +15°C° 0 mm 2 mps 748 mmHg 86%
    07:00 +16°C° 0 mm 2 mps 748 mmHg 82%
    08:00 +18°C° 0 mm 2 mps 748 mmHg 77%
    09:00 +20°C° 0 mm 2 mps 748 mmHg 72%
    10:00 +22°C° 0 mm 3 mps 748 mmHg 68%
    11:00 +25°C° 0 mm 3 mps 749 mmHg 63%
    12:00 +25°C° 0 mm 3 mps 749 mmHg 62%
    13:00 +26°C° 0 mm 3 mps 749 mmHg 61%
    14:00 +27°C° 0 mm 3 mps 749 mmHg 60%
    15:00 +26°C° 0 mm 3 mps 749 mmHg 63%
    16:00 +26°C° 0 mm 2 mps 749 mmHg 67%
    17:00 +26°C° 0 mm 2 mps 749 mmHg 71%
    18:00 +24°C° 0 mm 2 mps 749 mmHg 75%
    19:00 +21°C° 0 mm 2 mps 749 mmHg 79%
    20:00 +20°C° 0 mm 2 mps 749 mmHg 83%
    21:00 +19°C° 0 mm 3 mps 749 mmHg 82%
    22:00 +18°C° 0 mm 3 mps 749 mmHg 81%
    23:00 +18°C° 0 mm 3 mps 749 mmHg 80%

    Tomorrow, 20 August, Tuesday

    Time Temperature Precipitation Wind Pressure Humidity
    00:00 +18°C° 0 mm 3 mps 749 mmHg 78%
    01:00 +17°C° 0 mm 3 mps 750 mmHg 77%
    02:00 +17°C° 0 mm 3 mps 750 mmHg 75%
    03:00 +17°C° 0 mm 3 mps 750 mmHg 76%
    04:00 +16°C° 0 mm 3 mps 750 mmHg 77%
    05:00 +16°C° 0 mm 2 mps 750 mmHg 78%
    06:00 +17°C° 0 mm 3 mps 750 mmHg 77%
    07:00 +19°C° 0 mm 3 mps 751 mmHg 75%
    08:00 +21°C° 0 mm 3 mps 751 mmHg 74%
    09:00 +22°C° 0 mm 3 mps 751 mmHg 71%
    10:00 +25°C° 0 mm 3 mps 751 mmHg 69%
    11:00 +26°C° 0 mm 3 mps 751 mmHg 66%
    12:00 +27°C° 0 mm 3 mps 751 mmHg 64%
    13:00 +28°C° 0 mm 3 mps 751 mmHg 62%
    14:00 +28°C° 0 mm 3 mps 751 mmHg 60%
    15:00 +28°C° 0 mm 3 mps 751 mmHg 63%
    16:00 +28°C° 0 mm 2 mps 751 mmHg 67%
    17:00 +28°C° 0 mm 2 mps 751 mmHg 70%
    18:00 +26°C° 0 mm 2 mps 751 mmHg 74%
    19:00 +24°C° 0 mm 2 mps 751 mmHg 77%
    20:00 +23°C° 0 mm 2 mps 751 mmHg 81%
    21:00 +21°C° 0 mm 2 mps 752 mmHg 82%
    22:00 +20°C° 0 mm 2 mps 752 mmHg 83%
    23:00 +20°C° 0 mm 2 mps 752 mmHg 84%

    Day after tomorrow, 21 August, Wednesday

    Time Temperature Precipitation Wind Pressure Humidity
    00:00 +19°C° 0 mm 2 mps 752 mmHg 84%
    01:00 +19°C° 0 mm 2 mps 752 mmHg 83%
    02:00 +18°C° 0 mm 2 mps 752 mmHg 83%
    03:00 +18°C° 0 mm 2 mps 752 mmHg 83%
    04:00 +18°C° 0 mm 2 mps 752 mmHg 83%
    05:00 +18°C° 0 mm 2 mps 752 mmHg 83%
    06:00 +19°C° 0 mm 2 mps 752 mmHg 80%
    07:00 +21°C° 0 mm 2 mps 752 mmHg 76%
    08:00 +23°C° 0 mm 2 mps 752 mmHg 73%
    09:00 +24°C° 0 mm 2 mps 752 mmHg 69%
    10:00 +26°C° 0 mm 3 mps 752 mmHg 66%
    11:00 +27°C° 0 mm 3 mps 752 mmHg 62%
    12:00 +27°C° 0 mm 3 mps 752 mmHg 61%
    13:00 +28°C° 0 mm 3 mps 751 mmHg 59%
    14:00 +28°C° 0 mm 3 mps 751 mmHg 58%
    15:00 +28°C° 0 mm 2 mps 751 mmHg 61%
    16:00 +28°C° 0 mm 2 mps 750 mmHg 64%
    17:00 +27°C° 0 mm 2 mps 750 mmHg 68%
    18:00 +26°C° 0 mm 2 mps 750 mmHg 71%
    19:00 +24°C° 0 mm 2 mps 750 mmHg 75%
    20:00 +21°C° 0 mm 2 mps 750 mmHg 78%
    21:00 +20°C° 0 mm 2 mps 750 mmHg 78%
    22:00 +20°C° 0 mm 2 mps 750 mmHg 78%
    23:00 +19°C° 0 mm 2 mps 750 mmHg 78%

    22 August, Thursday

    Time Temperature Precipitation Wind Pressure Humidity
    00:00 +19°C° 0 mm 2 mps 750 mmHg 79%
    01:00 +18°C° 0 mm 2 mps 750 mmHg 79%
    02:00 +18°C° 0 mm 2 mps 750 mmHg 80%
    03:00 +19°C° 0 mm 1 mps 750 mmHg 81%
    04:00 +18°C° 0 mm 1 mps 750 mmHg 83%
    05:00 +18°C° 0 mm 1 mps 750 mmHg 84%
    06:00 +20°C° 0 mm 1 mps 750 mmHg 80%
    07:00 +21°C° 0 mm 1 mps 750 mmHg 77%
    08:00 +23°C° 0 mm 1 mps 750 mmHg 73%
    09:00 +24°C° 0 mm 1 mps 750 mmHg 70%
    10:00 +25°C° 0 mm 1 mps 750 mmHg 68%
    11:00 +26°C° 0 mm 1 mps 750 mmHg 65%
    12:00 +27°C° 0.1 mm 1 mps 750 mmHg 66%
    13:00 +27°C° 0.1 mm 1 mps 750 mmHg 66%
    14:00 +27°C° 0.1 mm 2 mps 750 mmHg 67%
    15:00 +26°C° 0.3 mm 2 mps 750 mmHg 73%
    16:00 +25°C° 0.3 mm 3 mps 750 mmHg 80%
    17:00 +22°C° 0.3 mm 4 mps 750 mmHg 86%
    18:00 +21°C° 0.4 mm 4 mps 750 mmHg 89%
    19:00 +20°C° 0.4 mm 4 mps 751 mmHg 92%
    20:00 +18°C° 0.4 mm 4 mps 751 mmHg 95%
    21:00 +18°C° 0 mm 4 mps 751 mmHg 94%
    22:00 +17°C° 0 mm 4 mps 751 mmHg 94%
    23:00 +17°C° 0 mm 4 mps 751 mmHg 94%

    23 August, Friday

    Time Temperature Precipitation Wind Pressure Humidity
    00:00 +17°C° 0 mm 4 mps 751 mmHg 94%
    01:00 +17°C° 0 mm 3 mps 751 mmHg 94%
    02:00 +16°C° 0 mm 3 mps 751 mmHg 94%
    03:00 +15°C° 0 mm 4 mps 751 mmHg 93%
    04:00 +15°C° 0 mm 4 mps 751 mmHg 93%
    05:00 +15°C° 0 mm 4 mps 751 mmHg 93%
    06:00 +15°C° 0 mm 4 mps 752 mmHg 89%
    07:00 +17°C° 0 mm 4 mps 752 mmHg 86%
    08:00 +18°C° 0 mm 4 mps 752 mmHg 83%
    09:00 +19°C° 0 mm 4 mps 752 mmHg 78%
    10:00 +21°C° 0 mm 4 mps 752 mmHg 73%
    11:00 +22°C° 0 mm 4 mps 753 mmHg 68%
    12:00 +22°C° 0 mm 4 mps 753 mmHg 67%
    13:00 +23°C° 0 mm 4 mps 753 mmHg 65%
    14:00 +23°C° 0 mm 4 mps 753 mmHg 64%
    15:00 +23°C° 0 mm 4 mps 753 mmHg 66%
    16:00 +22°C° 0 mm 4 mps 753 mmHg 68%
    17:00 +22°C° 0 mm 4 mps 753 mmHg 70%
    18:00 +20°C° 0 mm 3 mps 753 mmHg 74%
    19:00 +18°C° 0 mm 3 mps 753 mmHg 77%
    20:00 +16°C° 0 mm 3 mps 753 mmHg 80%
    21:00 +14°C° 0 mm 3 mps 753 mmHg 80%
    22:00 +14°C° 0 mm 3 mps 753 mmHg 80%
    23:00 +14°C° 0 mm 2 mps 754 mmHg 80%

    24 August, Saturday

    Time Temperature Precipitation Wind Pressure Humidity
    00:00 +13°C° 0 mm 2 mps 754 mmHg 82%
    01:00 +13°C° 0 mm 2 mps 754 mmHg 84%
    02:00 +13°C° 0 mm 2 mps 754 mmHg 86%
    03:00 +12°C° 0 mm 2 mps 754 mmHg 87%
    04:00 +12°C° 0 mm 2 mps 754 mmHg 88%
    05:00 +12°C° 0 mm 2 mps 754 mmHg 89%
    06:00 +14°C° 0 mm 2 mps 755 mmHg 84%
    07:00 +15°C° 0 mm 2 mps 755 mmHg 79%
    08:00 +17°C° 0 mm 2 mps 755 mmHg 74%
    09:00 +19°C° 0 mm 2 mps 755 mmHg 69%
    10:00 +20°C° 0 mm 2 mps 755 mmHg 64%
    11:00 +21°C° 0 mm 2 mps 755 mmHg 59%
    12:00 +23°C° 0 mm 2 mps 755 mmHg 58%
    13:00 +23°C° 0 mm 2 mps 755 mmHg 56%
    14:00 +24°C° 0 mm 2 mps 755 mmHg 54%
    15:00 +23°C° 0 mm 2 mps 755 mmHg 58%
    16:00 +23°C° 0 mm 2 mps 755 mmHg 62%
    17:00 +21°C° 0 mm 2 mps 755 mmHg 66%
    18:00 +19°C° 0 mm 2 mps 755 mmHg 70%
    19:00 +18°C° 0 mm 2 mps 755 mmHg 74%
    20:00 +16°C° 0 mm 1 mps 755 mmHg 79%
    21:00 +15°C° 0 mm 1 mps 755 mmHg 80%
    22:00 +15°C° 0 mm 1 mps 755 mmHg 82%
    23:00 +14°C° 0 mm 1 mps 755 mmHg 84%
    Show more